Time,TemperatureF,DewpointF,PressureIn,WindDirection,WindDirectionDegrees,WindSpeedMPH,WindSpeedGustMPH,Humidity,HourlyPrecipIn,Conditions,Clouds,dailyrainin,SoftwareType,DateUTC
2013-01-30 00:02:00,34.4,34.4,0.00,North,0,0.0,-999.0,100,0.00,,,-99.99,,2013-01-30 09:02:00,
2013-01-30 00:07:00,34.7,34.6,0.00,North,0,0.0,-999.0,100,0.00,,,-99.99,,2013-01-30 09:07:00,
2013-01-30 00:12:00,34.7,34.6,0.00,North,0,0.0,-999.0,100,0.00,,,-99.99,,2013-01-30 09:12:00,
2013-01-30 00:17:00,34.7,34.6,0.00,North,0,0.0,-999.0,100,0.00,,,-99.99,,2013-01-30 09:17:00,
2013-01-30 00:22:00,35.0,34.9,0.00,North,0,0.0,-999.0,100,0.00,,,-99.99,,2013-01-30 09:22:00,
2013-01-30 00:27:00,35.0,34.9,0.00,North,0,0.0,-999.0,100,0.00,,,-99.99,,2013-01-30 09:27:00,
2013-01-30 00:32:00,35.2,35.1,0.00,North,0,0.0,-999.0,100,0.00,,,-99.99,,2013-01-30 09:32:00,
2013-01-30 00:38:00,35.2,35.2,0.00,North,0,0.0,-999.0,100,0.00,,,-99.99,,2013-01-30 09:38:00,
2013-01-30 00:43:00,35.2,35.1,0.00,North,0,0.0,-999.0,100,0.00,,,-99.99,,2013-01-30 09:43:00,
2013-01-30 00:48:00,34.9,34.9,0.00,North,0,0.0,-999.0,100,0.00,,,-99.99,,2013-01-30 09:48:00,
2013-01-30 00:53:00,34.7,34.6,0.00,North,0,0.0,-999.0,100,0.00,,,-99.99,,2013-01-30 09:53:00,
2013-01-30 00:58:00,34.6,34.6,0.00,North,0,0.0,-999.0,100,0.00,,,-99.99,,2013-01-30 09:58:00,
2013-01-30 01:03:00,35.0,34.9,0.00,North,0,0.0,-999.0,100,0.00,,,-99.99,,2013-01-30 10:03:00,
2013-01-30 01:08:00,34.9,34.9,0.00,North,0,0.0,-999.0,100,0.00,,,-99.99,,2013-01-30 10:08:00,
2013-01-30 01:13:00,35.1,35.1,0.00,North,0,0.0,-999.0,100,0.00,,,-99.99,,2013-01-30 10:13:00,
2013-01-30 01:18:00,34.9,34.9,0.00,North,0,0.0,-999.0,100,0.00,,,-99.99,,2013-01-30 10:18:00,
2013-01-30 01:23:00,34.8,34.8,0.00,North,0,0.0,-999.0,100,0.00,,,-99.99,,2013-01-30 10:23:00,
2013-01-30 01:28:00,34.9,34.8,0.00,North,0,0.0,-999.0,100,0.00,,,-99.99,,2013-01-30 10:28:00,
2013-01-30 01:33:00,35.0,35.0,0.00,North,0,0.0,-999.0,100,0.00,,,-99.99,,2013-01-30 10:33:00,
2013-01-30 01:38:00,35.1,35.1,0.00,North,0,0.0,-999.0,100,0.00,,,-99.99,,2013-01-30 10:38:00,
2013-01-30 01:43:00,35.1,35.1,0.00,North,0,0.0,-999.0,100,0.00,,,-99.99,,2013-01-30 10:43:00,
2013-01-30 01:48:00,35.0,34.9,0.00,North,0,0.0,-999.0,100,0.00,,,-99.99,,2013-01-30 10:48:00,
2013-01-30 01:53:00,35.1,35.1,0.00,North,0,0.0,-999.0,100,0.00,,,-99.99,,2013-01-30 10:53:00,
2013-01-30 01:58:00,35.1,35.1,0.00,North,0,0.0,-999.0,100,0.00,,,-99.99,,2013-01-30 10:58:00,
2013-01-30 02:03:00,34.8,34.8,0.00,North,0,0.0,-999.0,100,0.00,,,-99.99,,2013-01-30 11:03:00,
2013-01-30 02:08:00,34.7,34.7,0.00,North,0,0.0,-999.0,100,0.00,,,-99.99,,2013-01-30 11:08:00,
2013-01-30 02:13:00,34.7,34.7,0.00,North,0,0.0,-999.0,100,0.00,,,-99.99,,2013-01-30 11:13:00,
2013-01-30 02:18:00,34.9,34.9,0.00,North,0,0.0,-999.0,100,0.00,,,-99.99,,2013-01-30 11:18:00,
2013-01-30 02:23:00,35.0,35.0,0.00,North,0,0.0,-999.0,100,0.00,,,-99.99,,2013-01-30 11:23:00,
2013-01-30 02:28:00,35.1,35.1,0.00,North,0,0.0,-999.0,100,0.00,,,-99.99,,2013-01-30 11:28:00,
2013-01-30 02:33:00,35.0,35.0,0.00,North,0,0.0,-999.0,100,0.00,,,-99.99,,2013-01-30 11:33:00,
2013-01-30 02:38:00,35.0,35.0,0.00,North,0,0.0,-999.0,100,0.00,,,-99.99,,2013-01-30 11:38:00,
2013-01-30 02:43:00,34.9,34.9,0.00,North,0,0.0,-999.0,100,0.00,,,-99.99,,2013-01-30 11:43:00,
2013-01-30 02:48:00,34.8,34.8,0.00,North,0,0.0,-999.0,100,0.00,,,-99.99,,2013-01-30 11:48:00,
2013-01-30 02:53:00,35.0,34.9,0.00,North,0,0.0,-999.0,100,0.00,,,-99.99,,2013-01-30 11:53:00,
2013-01-30 02:58:00,34.9,34.9,0.00,North,0,0.0,-999.0,100,0.00,,,-99.99,,2013-01-30 11:58:00,
2013-01-30 03:03:00,34.7,34.6,0.00,North,0,0.0,-999.0,100,0.00,,,-99.99,,2013-01-30 12:03:00,
2013-01-30 03:08:00,34.4,34.4,0.00,North,0,0.0,-999.0,100,0.00,,,-99.99,,2013-01-30 12:08:00,
2013-01-30 03:13:00,34.6,34.6,0.00,North,0,0.0,-999.0,100,0.00,,,-99.99,,2013-01-30 12:13:00,
2013-01-30 03:18:00,34.6,34.6,0.00,North,0,0.0,-999.0,100,0.00,,,-99.99,,2013-01-30 12:18:00,
2013-01-30 03:23:00,34.4,34.4,0.00,North,0,0.0,-999.0,100,0.00,,,-99.99,,2013-01-30 12:23:00,
2013-01-30 03:29:00,34.6,34.5,0.00,North,0,0.0,-999.0,100,0.00,,,-99.99,,2013-01-30 12:29:00,
2013-01-30 03:34:00,34.4,34.3,0.00,North,0,0.0,-999.0,100,0.00,,,-99.99,,2013-01-30 12:34:00,
2013-01-30 03:39:00,34.2,34.2,0.00,North,0,0.0,-999.0,100,0.00,,,-99.99,,2013-01-30 12:39:00,
2013-01-30 03:44:00,34.3,34.3,0.00,North,0,0.0,-999.0,100,0.00,,,-99.99,,2013-01-30 12:44:00,
2013-01-30 03:49:00,34.2,34.1,0.00,North,0,0.0,-999.0,100,0.00,,,-99.99,,2013-01-30 12:49:00,
2013-01-30 03:54:00,34.2,34.2,0.00,North,0,0.0,-999.0,100,0.00,,,-99.99,,2013-01-30 12:54:00,
2013-01-30 03:59:00,34.2,34.1,0.00,North,0,0.0,-999.0,100,0.00,,,-99.99,,2013-01-30 12:59:00,
2013-01-30 04:04:00,34.1,34.1,0.00,North,0,0.0,-999.0,100,0.00,,,-99.99,,2013-01-30 13:04:00,
2013-01-30 04:09:00,34.1,34.0,0.00,North,0,0.0,-999.0,100,0.00,,,-99.99,,2013-01-30 13:09:00,
2013-01-30 04:14:00,34.1,34.1,0.00,North,0,0.0,-999.0,100,0.00,,,-99.99,,2013-01-30 13:14:00,
2013-01-30 04:19:00,34.1,34.0,0.00,North,0,0.0,-999.0,100,0.00,,,-99.99,,2013-01-30 13:19:00,
2013-01-30 04:24:00,34.1,34.0,0.00,North,0,0.0,-999.0,100,0.00,,,-99.99,,2013-01-30 13:24:00,
2013-01-30 04:29:00,33.9,33.8,0.00,North,0,0.0,-999.0,100,0.00,,,-99.99,,2013-01-30 13:29:00,
2013-01-30 04:34:00,34.0,34.0,0.00,North,0,0.0,-999.0,100,0.00,,,-99.99,,2013-01-30 13:34:00,
2013-01-30 04:39:00,33.8,33.8,0.00,North,0,0.0,-999.0,100,0.00,,,-99.99,,2013-01-30 13:39:00,
2013-01-30 04:44:00,33.8,33.7,0.00,North,0,0.0,-999.0,100,0.00,,,-99.99,,2013-01-30 13:44:00,
2013-01-30 04:49:00,34.0,33.9,0.00,North,0,0.0,-999.0,100,0.00,,,-99.99,,2013-01-30 13:49:00,
2013-01-30 04:54:00,34.0,33.9,0.00,North,0,0.0,-999.0,100,0.00,,,-99.99,,2013-01-30 13:54:00,
2013-01-30 04:59:00,34.0,33.9,0.00,North,0,0.0,-999.0,100,0.00,,,-99.99,,2013-01-30 13:59:00,
2013-01-30 05:05:00,34.0,34.0,0.00,North,0,0.0,-999.0,100,0.00,,,-99.99,,2013-01-30 14:05:00,
2013-01-30 05:10:00,34.0,34.0,0.00,North,0,0.0,-999.0,100,0.00,,,-99.99,,2013-01-30 14:10:00,
2013-01-30 05:15:00,34.1,34.0,0.00,North,0,0.0,-999.0,100,0.00,,,-99.99,,2013-01-30 14:15:00,
2013-01-30 05:20:00,34.1,34.0,0.00,North,0,0.0,-999.0,100,0.00,,,-99.99,,2013-01-30 14:20:00,
2013-01-30 05:25:00,34.3,34.3,0.00,North,0,0.0,-999.0,100,0.00,,,-99.99,,2013-01-30 14:25:00,
2013-01-30 05:30:00,34.0,34.0,0.00,North,0,0.0,-999.0,100,0.00,,,-99.99,,2013-01-30 14:30:00,
2013-01-30 05:35:00,34.2,34.2,0.00,North,0,0.0,-999.0,100,0.00,,,-99.99,,2013-01-30 14:35:00,
2013-01-30 05:40:00,34.2,34.2,0.00,North,0,0.0,-999.0,100,0.00,,,-99.99,,2013-01-30 14:40:00,
2013-01-30 05:45:00,34.3,34.3,0.00,North,0,0.0,-999.0,100,0.00,,,-99.99,,2013-01-30 14:45:00,
2013-01-30 05:50:00,34.2,34.2,0.00,North,0,0.0,-999.0,100,0.00,,,-99.99,,2013-01-30 14:50:00,
2013-01-30 05:55:00,34.4,34.3,0.00,North,0,0.0,-999.0,100,0.00,,,-99.99,,2013-01-30 14:55:00,
2013-01-30 06:00:00,34.3,34.3,0.00,North,0,0.0,-999.0,100,0.00,,,-99.99,,2013-01-30 15:00:00,
2013-01-30 06:05:00,34.2,34.1,0.00,North,0,0.0,-999.0,100,0.00,,,-99.99,,2013-01-30 15:05:00,
2013-01-30 06:10:00,34.2,34.2,0.00,North,0,0.0,-999.0,100,0.00,,,-99.99,,2013-01-30 15:10:00,
2013-01-30 06:15:00,34.2,34.2,0.00,North,0,0.0,-999.0,100,0.00,,,-99.99,,2013-01-30 15:15:00,
2013-01-30 06:20:00,34.2,34.1,0.00,North,0,0.0,-999.0,100,0.00,,,-99.99,,2013-01-30 15:20:00,
2013-01-30 06:25:00,34.1,34.1,0.00,North,0,0.0,-999.0,100,0.00,,,-99.99,,2013-01-30 15:25:00,
2013-01-30 06:30:00,34.0,34.0,0.00,North,0,0.0,-999.0,100,0.00,,,-99.99,,2013-01-30 15:30:00,
2013-01-30 06:35:00,34.1,34.1,0.00,North,0,0.0,-999.0,100,0.00,,,-99.99,,2013-01-30 15:35:00,
2013-01-30 06:40:00,34.0,34.0,0.00,North,0,0.0,-999.0,100,0.00,,,-99.99,,2013-01-30 15:40:00,
2013-01-30 06:45:00,34.0,33.9,0.00,North,0,0.0,-999.0,100,0.00,,,-99.99,,2013-01-30 15:45:00,
2013-01-30 06:50:00,34.1,34.1,0.00,North,0,0.0,-999.0,100,0.00,,,-99.99,,2013-01-30 15:50:00,
2013-01-30 06:55:00,34.0,34.0,0.00,North,0,0.0,-999.0,100,0.00,,,-99.99,,2013-01-30 15:55:00,
2013-01-30 07:00:00,33.9,33.8,0.00,North,0,0.0,-999.0,100,0.00,,,-99.99,,2013-01-30 16:00:00,
2013-01-30 07:05:00,34.0,34.0,0.00,North,0,0.0,-999.0,100,0.00,,,-99.99,,2013-01-30 16:05:00,
2013-01-30 07:10:00,34.0,33.9,0.00,North,0,0.0,-999.0,100,0.00,,,-99.99,,2013-01-30 16:10:00,
2013-01-30 07:15:00,34.1,34.0,0.00,North,0,0.0,-999.0,100,0.00,,,-99.99,,2013-01-30 16:15:00,
2013-01-30 07:21:00,34.0,34.0,0.00,North,0,0.0,-999.0,100,0.00,,,-99.99,,2013-01-30 16:21:00,
2013-01-30 07:26:00,34.2,34.1,0.00,North,0,0.0,-999.0,100,0.00,,,-99.99,,2013-01-30 16:26:00,
2013-01-30 07:31:00,34.1,34.1,0.00,North,0,0.0,-999.0,100,0.00,,,-99.99,,2013-01-30 16:31:00,
2013-01-30 07:36:00,33.9,33.8,0.00,North,1,0.0,-999.0,100,0.00,,,-99.99,,2013-01-30 16:36:00,
2013-01-30 07:41:00,34.0,34.0,0.00,North,1,0.0,-999.0,100,0.00,,,-99.99,,2013-01-30 16:41:00,
2013-01-30 07:47:00,34.0,34.0,0.00,North,1,0.0,-999.0,100,0.00,,,-99.99,,2013-01-30 16:47:00,
2013-01-30 07:52:00,33.8,33.8,0.00,North,1,0.0,-999.0,100,0.00,,,-99.99,,2013-01-30 16:52:00,
2013-01-30 07:57:00,33.7,33.7,0.00,North,1,0.0,-999.0,100,0.00,,,-99.99,,2013-01-30 16:57:00,
2013-01-30 08:02:00,33.8,33.8,0.00,North,0,0.0,-999.0,100,0.00,,,-99.99,,2013-01-30 17:02:00,
2013-01-30 08:07:00,33.8,33.7,0.00,North,0,0.0,-999.0,100,0.00,,,-99.99,,2013-01-30 17:07:00,
2013-01-30 08:12:00,34.0,34.0,0.00,North,0,0.0,-999.0,100,0.00,,,-99.99,,2013-01-30 17:12:00,
2013-01-30 08:17:00,34.0,33.9,0.00,North,0,0.0,-999.0,100,0.00,,,-99.99,,2013-01-30 17:17:00,
2013-01-30 08:22:00,34.0,33.9,0.00,North,0,0.0,-999.0,100,0.00,,,-99.99,,2013-01-30 17:22:00,
2013-01-30 08:27:00,34.1,34.0,0.00,North,0,0.0,-999.0,100,0.00,,,-99.99,,2013-01-30 17:27:00,
2013-01-30 08:32:00,34.0,34.0,0.00,North,0,0.0,-999.0,100,0.00,,,-99.99,,2013-01-30 17:32:00,
2013-01-30 08:37:00,34.1,34.0,0.00,North,0,0.0,-999.0,100,0.00,,,-99.99,,2013-01-30 17:37:00,
2013-01-30 08:42:00,34.0,33.9,0.00,North,0,0.0,-999.0,100,0.00,,,-99.99,,2013-01-30 17:42:00,
2013-01-30 08:47:00,34.2,34.2,0.00,North,0,0.0,-999.0,100,0.00,,,-99.99,,2013-01-30 17:47:00,
2013-01-30 08:52:00,34.1,34.0,0.00,North,0,0.0,-999.0,100,0.00,,,-99.99,,2013-01-30 17:52:00,
2013-01-30 08:57:00,34.2,34.1,0.00,North,0,0.0,-999.0,100,0.00,,,-99.99,,2013-01-30 17:57:00,
2013-01-30 09:02:00,34.0,33.9,0.00,North,0,0.0,-999.0,100,0.00,,,-99.99,,2013-01-30 18:02:00,
2013-01-30 09:07:00,34.2,34.1,0.00,North,0,0.0,-999.0,100,0.00,,,-99.99,,2013-01-30 18:07:00,
2013-01-30 09:13:00,34.1,34.1,0.00,North,0,0.0,-999.0,100,0.00,,,-99.99,,2013-01-30 18:13:00,
2013-01-30 09:18:00,34.2,34.2,0.00,North,0,0.0,-999.0,100,0.00,,,-99.99,,2013-01-30 18:18:00,
2013-01-30 09:23:00,34.4,34.4,0.00,North,0,0.0,-999.0,100,0.00,,,-99.99,,2013-01-30 18:23:00,
2013-01-30 09:28:00,34.6,34.5,0.00,North,0,0.0,-999.0,100,0.00,,,-99.99,,2013-01-30 18:28:00,
2013-01-30 09:33:00,34.4,34.4,0.00,North,0,0.0,-999.0,100,0.00,,,-99.99,,2013-01-30 18:33:00,
2013-01-30 09:38:00,34.5,34.5,0.00,North,0,0.0,-999.0,100,0.00,,,-99.99,,2013-01-30 18:38:00,
2013-01-30 09:43:00,34.6,34.5,0.00,North,0,0.0,-999.0,100,0.00,,,-99.99,,2013-01-30 18:43:00,
2013-01-30 09:48:00,34.7,34.6,0.00,North,0,0.0,-999.0,100,0.00,,,-99.99,,2013-01-30 18:48:00,
2013-01-30 09:53:00,34.7,34.7,0.00,North,0,0.0,-999.0,100,0.00,,,-99.99,,2013-01-30 18:53:00,
2013-01-30 09:58:00,34.6,34.6,0.00,North,0,0.0,-999.0,100,0.00,,,-99.99,,2013-01-30 18:58:00,
2013-01-30 10:03:00,34.6,34.6,0.00,North,0,0.0,-999.0,100,0.00,,,-99.99,,2013-01-30 19:03:00,
2013-01-30 10:08:00,34.7,34.6,0.00,North,0,0.0,-999.0,100,0.00,,,-99.99,,2013-01-30 19:08:00,
2013-01-30 10:15:00,34.9,34.9,0.00,North,0,0.0,-999.0,100,0.00,,,-99.99,,2013-01-30 19:15:00,
2013-01-30 10:20:00,35.2,35.2,0.00,North,0,0.0,-999.0,100,0.00,,,-99.99,,2013-01-30 19:20:00,
2013-01-30 10:25:00,35.1,35.1,0.00,North,0,0.0,-999.0,100,0.00,,,-99.99,,2013-01-30 19:25:00,
2013-01-30 10:30:00,35.3,35.2,0.00,North,0,0.0,-999.0,100,0.00,,,-99.99,,2013-01-30 19:30:00,
2013-01-30 10:35:00,35.1,35.1,0.00,North,0,0.0,-999.0,100,0.00,,,-99.99,,2013-01-30 19:35:00,
2013-01-30 10:40:00,35.3,35.3,0.00,North,0,0.0,-999.0,100,0.00,,,-99.99,,2013-01-30 19:40:00,
2013-01-30 10:45:00,35.2,35.1,0.00,North,0,0.0,-999.0,100,0.00,,,-99.99,,2013-01-30 19:45:00,
2013-01-30 10:50:00,35.1,35.1,0.00,North,0,0.0,-999.0,100,0.00,,,-99.99,,2013-01-30 19:50:00,
2013-01-30 10:55:00,35.4,35.3,0.00,North,0,0.0,-999.0,100,0.00,,,-99.99,,2013-01-30 19:55:00,
2013-01-30 11:00:00,35.1,35.0,0.00,North,0,0.0,-999.0,100,0.00,,,-99.99,,2013-01-30 20:00:00,
2013-01-30 11:05:00,35.1,35.0,0.00,North,0,0.0,-999.0,100,0.00,,,-99.99,,2013-01-30 20:05:00,
2013-01-30 11:10:00,35.1,35.1,0.00,North,0,0.0,-999.0,100,0.00,,,-99.99,,2013-01-30 20:10:00,
2013-01-30 11:15:00,35.2,35.2,0.00,North,0,0.0,-999.0,100,0.00,,,-99.99,,2013-01-30 20:15:00,
2013-01-30 11:20:00,35.1,35.1,0.00,North,0,0.0,-999.0,100,0.00,,,-99.99,,2013-01-30 20:20:00,
2013-01-30 11:25:00,35.0,34.9,0.00,North,0,0.0,-999.0,100,0.00,,,-99.99,,2013-01-30 20:25:00,
2013-01-30 11:30:00,35.0,34.9,0.00,North,0,0.0,-999.0,100,0.00,,,-99.99,,2013-01-30 20:30:00,
2013-01-30 11:35:00,34.8,34.8,0.00,North,0,0.0,-999.0,100,0.00,,,-99.99,,2013-01-30 20:35:00,
2013-01-30 11:40:00,34.9,34.8,0.00,North,0,0.0,-999.0,100,0.00,,,-99.99,,2013-01-30 20:40:00,
2013-01-30 11:45:00,35.0,34.9,0.00,North,0,0.0,-999.0,100,0.00,,,-99.99,,2013-01-30 20:45:00,
2013-01-30 11:50:00,35.0,35.0,0.00,North,0,0.0,-999.0,100,0.00,,,-99.99,,2013-01-30 20:50:00,
2013-01-30 11:55:00,35.1,35.1,0.00,North,0,0.0,-999.0,100,0.00,,,-99.99,,2013-01-30 20:55:00,
2013-01-30 12:00:00,34.9,34.9,0.00,North,0,0.0,-999.0,100,0.00,,,-99.99,,2013-01-30 21:00:00,
2013-01-30 12:05:00,35.0,35.0,0.00,North,0,0.0,-999.0,100,0.00,,,-99.99,,2013-01-30 21:05:00,
2013-01-30 12:11:00,35.1,35.1,0.00,North,0,0.0,-999.0,100,0.00,,,-99.99,,2013-01-30 21:11:00,
2013-01-30 12:16:00,35.0,35.0,0.00,North,0,0.0,-999.0,100,0.00,,,-99.99,,2013-01-30 21:16:00,
2013-01-30 12:21:00,34.9,34.8,0.00,North,0,0.0,-999.0,100,0.00,,,-99.99,,2013-01-30 21:21:00,
2013-01-30 12:26:00,35.1,35.1,0.00,North,0,0.0,-999.0,100,0.00,,,-99.99,,2013-01-30 21:26:00,
2013-01-30 12:31:00,35.2,35.1,0.00,North,0,0.0,-999.0,100,0.00,,,-99.99,,2013-01-30 21:31:00,
2013-01-30 12:36:00,35.3,35.2,0.00,North,0,0.0,-999.0,100,0.00,,,-99.99,,2013-01-30 21:36:00,
2013-01-30 12:41:00,35.5,35.5,0.00,North,0,0.0,-999.0,100,0.00,,,-99.99,,2013-01-30 21:41:00,
2013-01-30 12:46:00,35.7,35.6,0.00,North,0,0.0,-999.0,100,0.00,,,-99.99,,2013-01-30 21:46:00,
2013-01-30 12:51:00,35.5,35.5,0.00,North,0,0.0,-999.0,100,0.00,,,-99.99,,2013-01-30 21:51:00,
2013-01-30 12:56:00,35.7,35.6,0.00,North,0,0.0,-999.0,100,0.00,,,-99.99,,2013-01-30 21:56:00,
2013-01-30 13:01:00,35.7,35.7,0.00,North,0,0.0,-999.0,100,0.00,,,-99.99,,2013-01-30 22:01:00,
2013-01-30 13:06:00,35.8,35.8,0.00,North,0,0.0,-999.0,100,0.00,,,-99.99,,2013-01-30 22:06:00,
2013-01-30 13:11:00,35.7,35.7,0.00,North,0,0.0,-999.0,100,0.00,,,-99.99,,2013-01-30 22:11:00,
2013-01-30 13:16:00,35.8,35.7,0.00,North,0,0.0,-999.0,100,0.00,,,-99.99,,2013-01-30 22:16:00,
2013-01-30 13:21:00,35.8,35.7,0.00,North,0,0.0,-999.0,100,0.00,,,-99.99,,2013-01-30 22:21:00,
2013-01-30 13:26:00,35.7,35.7,0.00,North,0,0.0,-999.0,100,0.00,,,-99.99,,2013-01-30 22:26:00,
2013-01-30 13:31:00,35.8,35.7,0.00,North,0,0.0,-999.0,100,0.00,,,-99.99,,2013-01-30 22:31:00,
2013-01-30 13:36:00,35.7,35.7,0.00,North,0,0.0,-999.0,100,0.00,,,-99.99,,2013-01-30 22:36:00,
2013-01-30 13:41:00,35.7,35.7,0.00,North,0,0.0,-999.0,100,0.00,,,-99.99,,2013-01-30 22:41:00,
2013-01-30 13:46:00,35.8,35.7,0.00,North,0,0.0,-999.0,100,0.00,,,-99.99,,2013-01-30 22:46:00,
2013-01-30 13:51:00,35.8,35.8,0.00,North,0,0.0,-999.0,100,0.00,,,-99.99,,2013-01-30 22:51:00,
2013-01-30 13:56:00,36.0,35.9,0.00,North,0,0.0,-999.0,100,0.00,,,-99.99,,2013-01-30 22:56:00,
2013-01-30 14:01:00,35.8,35.7,0.00,North,0,0.0,-999.0,100,0.00,,,-99.99,,2013-01-30 23:01:00,
2013-01-30 14:07:00,35.9,35.8,0.00,North,0,0.0,-999.0,100,0.00,,,-99.99,,2013-01-30 23:07:00,
2013-01-30 14:12:00,35.9,35.8,0.00,North,0,0.0,-999.0,100,0.00,,,-99.99,,2013-01-30 23:12:00,
2013-01-30 14:17:00,35.9,35.8,0.00,North,0,0.0,-999.0,100,0.00,,,-99.99,,2013-01-30 23:17:00,
2013-01-30 14:22:00,35.8,35.7,0.00,North,0,0.0,-999.0,100,0.00,,,-99.99,,2013-01-30 23:22:00,
2013-01-30 14:27:00,36.0,35.9,0.00,North,0,0.0,-999.0,100,0.00,,,-99.99,,2013-01-30 23:27:00,
2013-01-30 14:32:00,36.0,35.9,0.00,North,0,0.0,-999.0,100,0.00,,,-99.99,,2013-01-30 23:32:00,
2013-01-30 14:37:00,35.9,35.8,0.00,North,0,0.0,-999.0,100,0.00,,,-99.99,,2013-01-30 23:37:00,
2013-01-30 14:42:00,35.9,35.8,0.00,North,0,0.0,-999.0,100,0.00,,,-99.99,,2013-01-30 23:42:00,
2013-01-30 14:47:00,35.8,35.8,0.00,North,0,0.0,-999.0,100,0.00,,,-99.99,,2013-01-30 23:47:00,
2013-01-30 14:52:00,35.8,35.7,0.00,North,0,0.0,-999.0,100,0.00,,,-99.99,,2013-01-30 23:52:00,
2013-01-30 14:57:00,35.8,35.7,0.00,North,0,0.0,-999.0,100,0.00,,,-99.99,,2013-01-30 23:57:00,
2013-01-30 15:02:00,35.7,35.7,0.00,North,0,0.0,-999.0,100,0.00,,,-99.99,,2013-01-31 00:02:00,
2013-01-30 15:07:00,35.5,35.5,0.00,North,0,0.0,-999.0,100,0.00,,,-99.99,,2013-01-31 00:07:00,
2013-01-30 15:12:00,35.5,35.5,0.00,North,0,0.0,-999.0,100,0.00,,,-99.99,,2013-01-31 00:12:00,
2013-01-30 15:17:00,35.4,35.4,0.00,North,0,0.0,-999.0,100,0.00,,,-99.99,,2013-01-31 00:17:00,
2013-01-30 15:22:00,35.3,35.2,0.00,North,0,0.0,-999.0,100,0.00,,,-99.99,,2013-01-31 00:22:00,
2013-01-30 15:27:00,35.2,35.2,0.00,North,0,0.0,-999.0,100,0.00,,,-99.99,,2013-01-31 00:27:00,
2013-01-30 15:32:00,35.4,35.4,0.00,North,0,0.0,-999.0,100,0.00,,,-99.99,,2013-01-31 00:32:00,
2013-01-30 15:37:00,35.6,35.5,0.00,North,0,0.0,-999.0,100,0.00,,,-99.99,,2013-01-31 00:37:00,
2013-01-30 15:42:00,35.3,35.2,0.00,North,0,0.0,-999.0,100,0.00,,,-99.99,,2013-01-31 00:42:00,
2013-01-30 15:47:00,35.4,35.4,0.00,North,0,0.0,-999.0,100,0.00,,,-99.99,,2013-01-31 00:47:00,
2013-01-30 15:52:00,35.3,35.3,0.00,North,0,0.0,-999.0,100,0.00,,,-99.99,,2013-01-31 00:52:00,
2013-01-30 15:57:00,35.3,35.3,0.00,North,0,0.0,-999.0,100,0.00,,,-99.99,,2013-01-31 00:57:00,
2013-01-30 16:03:00,35.5,35.4,0.00,North,0,0.0,-999.0,100,0.00,,,-99.99,,2013-01-31 01:03:00,
2013-01-30 16:08:00,35.3,35.2,0.00,North,0,0.0,-999.0,100,0.00,,,-99.99,,2013-01-31 01:08:00,
2013-01-30 16:14:00,35.2,35.2,0.00,North,0,0.0,-999.0,100,0.00,,,-99.99,,2013-01-31 01:14:00,
2013-01-30 16:19:00,35.5,35.5,0.00,North,0,0.0,-999.0,100,0.00,,,-99.99,,2013-01-31 01:19:00,
2013-01-30 16:24:00,35.8,35.8,0.00,North,0,0.0,-999.0,100,0.00,,,-99.99,,2013-01-31 01:24:00,
2013-01-30 16:30:00,35.3,35.3,0.00,North,0,0.0,-999.0,100,0.00,,,-99.99,,2013-01-31 01:30:00,
2013-01-30 16:35:00,35.2,35.1,0.00,North,0,0.0,-999.0,100,0.00,,,-99.99,,2013-01-31 01:35:00,
2013-01-30 16:40:00,35.2,35.1,0.00,North,0,0.0,-999.0,100,0.00,,,-99.99,,2013-01-31 01:40:00,
2013-01-30 16:45:00,35.2,35.2,0.00,North,0,0.0,-999.0,100,0.00,,,-99.99,,2013-01-31 01:45:00,
2013-01-30 16:50:00,35.4,35.4,0.00,North,0,0.0,-999.0,100,0.00,,,-99.99,,2013-01-31 01:50:00,
2013-01-30 16:55:00,35.2,35.2,0.00,North,0,0.0,-999.0,100,0.00,,,-99.99,,2013-01-31 01:55:00,
2013-01-30 17:00:00,35.8,35.7,0.00,North,0,0.0,-999.0,100,0.00,,,-99.99,,2013-01-31 02:00:00,
2013-01-30 17:05:00,35.8,35.8,0.00,North,0,0.0,-999.0,100,0.00,,,-99.99,,2013-01-31 02:05:00,
2013-01-30 17:10:00,35.3,35.2,0.00,North,0,0.0,-999.0,100,0.00,,,-99.99,,2013-01-31 02:10:00,
2013-01-30 17:15:00,35.2,35.1,0.00,North,0,0.0,-999.0,100,0.00,,,-99.99,,2013-01-31 02:15:00,
2013-01-30 17:20:00,35.2,35.2,0.00,North,0,0.0,-999.0,100,0.00,,,-99.99,,2013-01-31 02:20:00,
2013-01-30 17:25:00,35.3,35.3,0.00,North,0,0.0,-999.0,100,0.00,,,-99.99,,2013-01-31 02:25:00,
2013-01-30 17:30:00,35.5,35.4,0.00,North,0,0.0,-999.0,100,0.00,,,-99.99,,2013-01-31 02:30:00,
2013-01-30 17:35:00,35.5,35.4,0.00,North,0,0.0,-999.0,100,0.00,,,-99.99,,2013-01-31 02:35:00,
2013-01-30 17:40:00,35.2,35.2,0.00,North,0,0.0,-999.0,100,0.00,,,-99.99,,2013-01-31 02:40:00,
2013-01-30 17:45:00,35.7,35.7,0.00,North,0,0.0,-999.0,100,0.00,,,-99.99,,2013-01-31 02:45:00,
2013-01-30 17:50:00,35.7,35.7,0.00,North,0,0.0,-999.0,100,0.00,,,-99.99,,2013-01-31 02:50:00,
2013-01-30 17:55:00,35.6,35.6,0.00,North,0,0.0,-999.0,100,0.00,,,-99.99,,2013-01-31 02:55:00,
2013-01-30 18:00:00,35.6,35.6,0.00,North,0,0.0,-999.0,100,0.00,,,-99.99,,2013-01-31 03:00:00,
2013-01-30 18:05:00,35.4,35.4,0.00,North,0,0.0,-999.0,100,0.00,,,-99.99,,2013-01-31 03:05:00,
2013-01-30 18:10:00,35.2,35.2,0.00,North,0,0.0,-999.0,100,0.00,,,-99.99,,2013-01-31 03:10:00,
2013-01-30 18:15:00,34.9,34.8,0.00,North,0,0.0,-999.0,100,0.00,,,-99.99,,2013-01-31 03:15:00,
2013-01-30 18:20:00,35.2,35.1,0.00,North,0,0.0,-999.0,100,0.00,,,-99.99,,2013-01-31 03:20:00,
2013-01-30 18:25:00,35.3,35.2,0.00,North,0,0.0,-999.0,100,0.00,,,-99.99,,2013-01-31 03:25:00,
2013-01-30 18:30:00,35.2,35.2,0.00,North,0,0.0,-999.0,100,0.00,,,-99.99,,2013-01-31 03:30:00,
2013-01-30 18:35:00,35.4,35.4,0.00,North,0,0.0,-999.0,100,0.00,,,-99.99,,2013-01-31 03:35:00,
2013-01-30 18:40:00,35.3,35.3,0.00,North,0,0.0,-999.0,100,0.00,,,-99.99,,2013-01-31 03:40:00,
2013-01-30 18:45:00,35.3,35.3,0.00,North,0,0.0,-999.0,99,0.00,,,-99.99,,2013-01-31 03:45:00,
2013-01-30 18:50:00,35.7,35.6,0.00,North,0,0.0,-999.0,99,0.00,,,-99.99,,2013-01-31 03:50:00,
2013-01-30 18:55:00,35.6,35.4,0.00,North,0,0.0,-999.0,99,0.00,,,-99.99,,2013-01-31 03:55:00,
2013-01-30 19:00:00,35.7,35.4,0.00,North,0,0.0,-999.0,98,0.00,,,-99.99,,2013-01-31 04:00:00,
2013-01-30 19:05:00,35.2,34.9,0.00,North,0,0.0,-999.0,98,0.00,,,-99.99,,2013-01-31 04:05:00,
2013-01-30 19:12:00,35.0,34.8,0.00,North,0,0.0,-999.0,99,0.00,,,-99.99,,2013-01-31 04:12:00,
2013-01-30 19:17:00,35.0,34.8,0.00,North,0,0.0,-999.0,99,0.00,,,-99.99,,2013-01-31 04:17:00,
2013-01-30 19:22:00,35.2,34.9,0.00,North,0,0.0,-999.0,99,0.00,,,-99.99,,2013-01-31 04:22:00,
2013-01-30 19:27:00,35.1,34.8,0.00,North,0,0.0,-999.0,98,0.00,,,-99.99,,2013-01-31 04:27:00,
2013-01-30 19:32:00,35.0,34.8,0.00,North,0,0.0,-999.0,98,0.00,,,-99.99,,2013-01-31 04:32:00,
2013-01-30 19:37:00,35.0,34.8,0.00,North,0,0.0,-999.0,99,0.00,,,-99.99,,2013-01-31 04:37:00,
2013-01-30 19:42:00,34.7,34.5,0.00,North,0,0.0,-999.0,99,0.00,,,-99.99,,2013-01-31 04:42:00,
2013-01-30 19:47:00,34.9,34.8,0.00,North,0,0.0,-999.0,99,0.00,,,-99.99,,2013-01-31 04:47:00,
2013-01-30 19:52:00,35.2,34.9,0.00,North,0,0.0,-999.0,98,0.00,,,-99.99,,2013-01-31 04:52:00,
2013-01-30 19:57:00,35.3,35.0,0.00,North,0,0.0,-999.0,98,0.00,,,-99.99,,2013-01-31 04:57:00,
2013-01-30 20:00:00,35.4,34.9,0.00,North,0,0.0,-999.0,98,0.00,,,-99.99,,2013-01-31 05:00:00,
2013-01-30 20:01:00,35.4,35.0,0.00,North,0,0.0,-999.0,98,0.00,,,-99.99,,2013-01-31 05:01:00,
2013-01-30 20:03:00,35.4,34.9,0.00,North,0,0.0,-999.0,98,0.00,,,-99.99,,2013-01-31 05:03:00,
2013-01-30 20:06:00,35.5,35.0,0.00,North,0,0.0,-999.0,97,0.00,,,-99.99,,2013-01-31 05:06:00,
2013-01-30 20:11:00,35.4,34.8,0.00,North,0,0.0,-999.0,97,0.00,,,-99.99,,2013-01-31 05:11:00,
2013-01-30 20:16:00,35.2,34.7,0.00,North,0,0.0,-999.0,97,0.00,,,-99.99,,2013-01-31 05:16:00,
2013-01-30 20:21:00,35.1,34.5,0.00,North,0,0.0,-999.0,97,0.00,,,-99.99,,2013-01-31 05:21:00,
2013-01-30 20:26:00,34.9,34.4,0.00,North,0,0.0,-999.0,98,0.00,,,-99.99,,2013-01-31 05:26:00,
2013-01-30 20:31:00,34.9,34.4,0.00,North,0,0.0,-999.0,98,0.00,,,-99.99,,2013-01-31 05:31:00,
2013-01-30 20:36:00,35.0,34.6,0.00,North,0,0.0,-999.0,98,0.00,,,-99.99,,2013-01-31 05:36:00,
2013-01-30 20:41:00,34.9,34.4,0.00,North,0,0.0,-999.0,98,0.00,,,-99.99,,2013-01-31 05:41:00,
2013-01-30 20:46:00,34.8,34.4,0.00,North,0,0.0,-999.0,98,0.00,,,-99.99,,2013-01-31 05:46:00,
2013-01-30 20:51:00,34.8,34.4,0.00,North,0,0.0,-999.0,98,0.00,,,-99.99,,2013-01-31 05:51:00,
2013-01-30 20:56:00,35.2,34.7,0.00,North,0,0.0,-999.0,98,0.00,,,-99.99,,2013-01-31 05:56:00,
2013-01-30 21:01:00,35.1,34.5,0.00,North,0,0.0,-999.0,97,0.00,,,-99.99,,2013-01-31 06:01:00,
2013-01-30 21:08:00,34.8,34.2,0.00,North,0,0.0,-999.0,97,0.00,,,-99.99,,2013-01-31 06:08:00,
2013-01-30 21:13:00,34.9,34.3,0.00,North,0,0.0,-999.0,97,0.00,,,-99.99,,2013-01-31 06:13:00,
2013-01-30 21:18:00,34.1,33.7,0.00,North,0,0.0,-999.0,98,0.00,,,-99.99,,2013-01-31 06:18:00,
2013-01-30 21:23:00,34.2,34.0,0.00,North,0,0.0,-999.0,98,0.00,,,-99.99,,2013-01-31 06:23:00,
2013-01-30 21:28:00,34.2,34.0,0.00,North,0,0.0,-999.0,99,0.00,,,-99.99,,2013-01-31 06:28:00,
2013-01-30 21:34:00,34.2,34.0,0.00,North,0,0.0,-999.0,99,0.00,,,-99.99,,2013-01-31 06:34:00,
2013-01-30 21:39:00,34.1,34.0,0.00,North,0,0.0,-999.0,99,0.00,,,-99.99,,2013-01-31 06:39:00,
2013-01-30 21:45:00,34.0,33.8,0.00,North,0,0.0,-999.0,99,0.00,,,-99.99,,2013-01-31 06:45:00,
2013-01-30 21:50:00,34.7,34.4,0.00,North,0,0.0,-999.0,98,0.00,,,-99.99,,2013-01-31 06:50:00,
2013-01-30 21:55:00,34.4,34.0,0.00,North,0,0.0,-999.0,98,0.00,,,-99.99,,2013-01-31 06:55:00,
2013-01-30 22:00:00,34.0,33.6,0.00,North,0,0.0,-999.0,98,0.00,,,-99.99,,2013-01-31 07:00:00,
2013-01-30 22:06:00,34.2,33.8,0.00,North,0,0.0,-999.0,98,0.00,,,-99.99,,2013-01-31 07:06:00,
2013-01-30 22:11:00,34.5,34.0,0.00,North,0,0.0,-999.0,97,0.00,,,-99.99,,2013-01-31 07:11:00,
2013-01-30 22:16:00,34.5,33.8,0.00,North,0,0.0,-999.0,97,0.00,,,-99.99,,2013-01-31 07:16:00,
2013-01-30 22:21:00,34.6,33.8,0.00,North,0,0.0,-999.0,96,0.00,,,-99.99,,2013-01-31 07:21:00,
2013-01-30 22:26:00,35.0,34.0,0.00,North,0,0.0,-999.0,95,0.00,,,-99.99,,2013-01-31 07:26:00,
2013-01-30 22:31:00,35.0,33.9,0.00,North,0,0.0,-999.0,95,0.00,,,-99.99,,2013-01-31 07:31:00,
2013-01-30 22:36:00,34.7,33.7,0.00,North,0,0.0,-999.0,95,0.00,,,-99.99,,2013-01-31 07:36:00,
2013-01-30 22:41:00,34.4,33.5,0.00,North,0,0.0,-999.0,96,0.00,,,-99.99,,2013-01-31 07:41:00,
2013-01-30 22:46:00,34.8,33.8,0.00,North,0,0.0,-999.0,96,0.00,,,-99.99,,2013-01-31 07:46:00,
2013-01-30 22:51:00,34.7,33.7,0.00,North,0,0.0,-999.0,95,0.00,,,-99.99,,2013-01-31 07:51:00,
2013-01-30 22:56:00,34.7,33.6,0.00,North,0,0.0,-999.0,95,0.00,,,-99.99,,2013-01-31 07:56:00,
2013-01-30 23:01:00,34.7,33.6,0.00,North,0,0.0,-999.0,95,0.00,,,-99.99,,2013-01-31 08:01:00,
2013-01-30 23:06:00,34.9,33.7,0.00,North,0,0.0,-999.0,95,0.00,,,-99.99,,2013-01-31 08:06:00,
2013-01-30 23:11:00,35.1,33.7,0.00,North,0,0.0,-999.0,94,0.00,,,-99.99,,2013-01-31 08:11:00,
2013-01-30 23:16:00,35.3,33.9,0.00,North,0,0.0,-999.0,94,0.00,,,-99.99,,2013-01-31 08:16:00,
2013-01-30 23:21:00,35.0,33.7,0.00,North,0,0.0,-999.0,94,0.00,,,-99.99,,2013-01-31 08:21:00,
2013-01-30 23:27:00,35.1,33.7,0.00,North,0,0.0,-999.0,94,0.00,,,-99.99,,2013-01-31 08:27:00,
2013-01-30 23:32:00,35.0,33.8,0.00,North,0,0.0,-999.0,95,0.00,,,-99.99,,2013-01-31 08:32:00,
2013-01-30 23:37:00,34.9,34.0,0.00,North,0,0.0,-999.0,96,0.00,,,-99.99,,2013-01-31 08:37:00,
2013-01-30 23:42:00,34.9,34.1,0.00,North,0,0.0,-999.0,96,0.00,,,-99.99,,2013-01-31 08:42:00,
2013-01-30 23:47:00,35.0,34.3,0.00,North,0,0.0,-999.0,96,0.00,,,-99.99,,2013-01-31 08:47:00,
2013-01-30 23:53:00,34.9,34.2,0.00,North,0,0.0,-999.0,97,0.00,,,-99.99,,2013-01-31 08:53:00,
2013-01-30 23:58:00,34.9,34.2,0.00,North,0,0.0,-999.0,97,0.00,,,-99.99,,2013-01-31 08:58:00,